Rome, NY

7:42 AM EDT on October 20, 2017 (GMT -0400)
Griffiss

Weather History for KRME - January, 2014

Change the Weather History Date:

Tuesday, January 21, 2014

  Actual Average Record
Temperature  
Mean Temperature -2 °F -  
Max Temperature 5 °F 23 °F 48 °F (2017)
Min Temperature -9 °F 7 °F -11 °F (1984)
Degree Days  
Heating Degree Days 66    
Moisture  
Dew Point -12 °F    
Average Humidity 63    
Maximum Humidity 75    
Minimum Humidity 48    
Precipitation  
Precipitation 0.00 in - - ()
Sea Level Pressure  
Sea Level Pressure 30.11 in    
Wind  
Wind Speed 5 mph (NNW)    
Max Wind Speed 12 mph    
Max Gust Speed -    
Visibility 10 miles    
Events      
Averages and records for this station are not official NWS values.
T = Trace of Precipitation, MM = Missing Value Source: NWS Daily Summary

Daily Weather History Graph

Daily Weather History Graph

Search for Another Location

Airport or City:

Trip Planner

Search our weather history database for the weather conditions in past years. The results will help you decide how hot, cold, wet, or windy it might be!

Date:

Astronomy

Jan. 21, 2014 Rise Set
Actual Time 7:27 AM EST 4:59 PM EST
Civil Twilight 6:56 AM EST 5:30 PM EST
Nautical Twilight 6:21 AM EST 6:05 PM EST
Astronomical Twilight 5:47 AM EST 6:39 PM EST
Moon 10:40 PM EST (1/21) 9:46 AM EST (1/21)
Length of Visible Light 10h 34m
Length of Day
9h 32m
Waning Gibbous, 75% of the Moon is Illuminated
Jan 21
Waning Gibbous
Jan 24
Last Quarter
Jan 30
New
Feb 6
First Quarter
Feb 14
Full

Hourly Weather History & Observations

Time (EST) Temp. Windchill Dew Point Humidity Pressure Visibility Wind Dir Wind Speed Gust Speed Precip Events Conditions
12:53 AM 3.0 °F -6.4 °F -8.0 °F 60% 30.05 in 10.0 mi North 4.6 mph - N/A   Overcast
1:53 AM 1.9 °F -10.6 °F -9.0 °F 60% 30.08 in 10.0 mi NNE 6.9 mph - N/A   Overcast
2:53 AM 1.0 °F -11.7 °F -9.9 °F 60% 30.09 in 10.0 mi NNE 6.9 mph - N/A   Overcast
3:53 AM -0.9 °F -11.0 °F -11.9 °F 60% 30.10 in 10.0 mi NNE 4.6 mph - N/A   Mostly Cloudy
4:53 AM -2.9 °F - -13.0 °F 62% 30.09 in 10.0 mi Calm Calm - N/A   Clear
5:53 AM -5.1 °F -15.8 °F -13.0 °F 69% 30.10 in 10.0 mi NE 4.6 mph - N/A   Clear
6:53 AM -7.1 °F - -13.0 °F 75% 30.09 in 10.0 mi Calm Calm - N/A   Clear
7:53 AM -6.0 °F - -13.0 °F 72% 30.12 in 10.0 mi Calm Calm - N/A   Clear
8:26 AM -6.0 °F - -13.0 °F 72% 30.11 in 10.0 mi Calm Calm - N/A   Mostly Cloudy
8:42 AM -6.0 °F - -13.0 °F 72% 30.11 in 10.0 mi Calm Calm - N/A   Overcast
8:53 AM -5.1 °F - -11.9 °F 72% 30.14 in 10.0 mi Calm Calm - N/A   Overcast
9:53 AM -5.1 °F -17.6 °F -14.1 °F 65% 30.17 in 10.0 mi North 5.8 mph - N/A   Clear
10:53 AM -0.9 °F -18.3 °F -11.9 °F 60% 30.17 in 10.0 mi NW 11.5 mph - 0.00 in   Clear
11:53 AM -0.0 °F -7.9 °F -11.0 °F 60% 30.14 in 10.0 mi NW 3.5 mph - 0.00 in   Clear
12:53 PM 1.9 °F -5.6 °F -9.9 °F 58% 30.12 in 9.0 mi WNW 3.5 mph - 0.00 in   Clear
1:53 PM 3.9 °F -8.2 °F -9.9 °F 53% 30.10 in 10.0 mi WNW 6.9 mph - 0.00 in   Clear
2:53 PM 5.0 °F -6.9 °F -9.0 °F 52% 30.08 in 10.0 mi West 6.9 mph - 0.00 in   Clear
3:53 PM 5.0 °F -6.9 °F -11.0 °F 48% 30.07 in 10.0 mi North 6.9 mph - N/A   Clear
4:53 PM 1.9 °F -12.9 °F -11.9 °F 52% 30.08 in 10.0 mi NW 9.2 mph - 0.00 in   Clear
5:53 PM -0.0 °F -13.0 °F -11.0 °F 60% 30.09 in 10.0 mi North 6.9 mph - N/A   Clear
6:53 PM -4.0 °F -17.8 °F -14.1 °F 62% 30.12 in 10.0 mi WNW 6.9 mph - N/A   Clear
7:53 PM -5.1 °F -17.6 °F -14.1 °F 65% 30.12 in 10.0 mi NW 5.8 mph - N/A   Clear
8:53 PM -5.1 °F -15.8 °F -14.1 °F 65% 30.15 in 10.0 mi NNW 4.6 mph - N/A   Clear
9:53 PM -6.0 °F -20.1 °F -16.1 °F 62% 30.14 in 10.0 mi North 6.9 mph - N/A   Clear
10:53 PM -8.0 °F -22.5 °F -17.0 °F 65% 30.14 in 10.0 mi NNE 6.9 mph - N/A   Clear
11:53 PM -9.9 °F - -18.0 °F 68% 30.13 in 10.0 mi Calm Calm - N/A   Clear